| time (UTC) | temp C | wind direction | speed KPH | gust KPH | rain 1hr cm | rain 24hr cm | rain mn cm | humidity % | barometer mb |
| 20260505015003 | 10 | 42 | 1.6 | 6.4 | 0.00 | 0.00 | 0.00 | 91 | 1013.0 |
| 20260505014003 | 10 | 30 | 1.6 | 8.0 | 0.00 | 0.00 | 0.00 | 91 | 1013.1 |
| 20260505013003 | 10 | 30 | 1.6 | 6.4 | 0.00 | 0.00 | 0.00 | 91 | 1013.3 |
| 20260505012003 | 10 | 0 | 0.0 | 8.0 | 0.00 | 0.00 | 0.00 | 91 | 1013.3 |
| 20260505011003 | 10 | 25 | 1.6 | 4.8 | 0.00 | 0.00 | 0.00 | 91 | 1013.4 |
| 20260505010003 | 10 | 25 | 3.2 | 6.4 | 0.00 | 0.00 | 0.00 | 91 | 1013.3 |
| 20260505005004 | 10 | 22 | 1.6 | 6.4 | 0.00 | 0.00 | 0.00 | 91 | 1013.4 |
| 20260505003003 | 10 | 20 | 1.6 | 8.0 | 0.00 | 0.00 | 0.00 | 90 | 1013.4 |
| 20260505002003 | 11 | 20 | 1.6 | 6.4 | 0.00 | 0.00 | 0.00 | 90 | 1013.4 |
| 20260505001003 | 11 | 16 | 1.6 | 6.4 | 0.00 | 0.00 | 0.00 | 89 | 1013.4 |
| 20260505000004 | 11 | 15 | 1.6 | 6.4 | 0.00 | 0.00 | 0.00 | 89 | 1013.5 |
| 20260504232004 | 11 | 38 | 3.2 | 6.4 | 0.00 | 0.00 | 0.00 | 88 | 1013.8 |
| 20260504231003 | 11 | 35 | 3.2 | 9.7 | 0.00 | 0.00 | 0.00 | 88 | 1013.8 |
| 20260504230003 | 11 | 15 | 3.2 | 12.9 | 0.00 | 0.00 | 0.00 | 88 | 1013.7 |
| 20260504225004 | 11 | 15 | 3.2 | 8.0 | 0.00 | 0.00 | 0.00 | 87 | 1013.9 |
| 20260504224003 | 11 | 21 | 3.2 | 11.3 | 0.00 | 0.00 | 0.00 | 87 | 1013.9 |
| 20260504223004 | 11 | 9 | 3.2 | 12.9 | 0.00 | 0.00 | 0.00 | 87 | 1014.0 |
| 20260504222003 | 11 | 12 | 3.2 | 11.3 | 0.00 | 0.00 | 0.00 | 87 | 1014.0 |
| 20260504220003 | 12 | 18 | 4.8 | 16.1 | 0.00 | 0.00 | 0.00 | 87 | 1014.1 |
| 20260504215003 | 12 | 26 | 4.8 | 12.9 | 0.00 | 0.00 | 0.00 | 87 | 1014.1 |
| 20260504214004 | 12 | 36 | 4.8 | 16.1 | 0.00 | 0.00 | 0.00 | 86 | 1014.1 |
| 20260504213003 | 12 | 28 | 4.8 | 14.5 | 0.00 | 0.00 | 0.00 | 86 | 1014.0 |
| 20260504212003 | 12 | 31 | 4.8 | 17.7 | 0.00 | 0.00 | 0.00 | 86 | 1014.0 |
| 20260504211004 | 12 | 36 | 8.0 | 16.1 | 0.00 | 0.00 | 0.00 | 86 | 1014.0 |
| 20260504210003 | 12 | 36 | 8.0 | 17.7 | 0.00 | 0.00 | 0.00 | 86 | 1014.0 |
| 20260504205003 | 12 | 28 | 6.4 | 17.7 | 0.00 | 0.00 | 0.00 | 86 | 1014.0 |
| 20260504204005 | 12 | 2 | 4.8 | 12.9 | 0.00 | 0.00 | 0.00 | 85 | 1014.0 |
| 20260504202004 | 13 | 13 | 4.8 | 14.5 | 0.00 | 0.00 | 0.00 | 85 | 1014.0 |
| 20260504200004 | 13 | 19 | 3.2 | 9.7 | 0.00 | 0.00 | 0.00 | 85 | 1013.9 |
| 20260504195003 | 13 | 11 | 4.8 | 16.1 | 0.00 | 0.00 | 0.00 | 85 | 1013.8 |
| 20260504194003 | 13 | 11 | 4.8 | 12.9 | 0.00 | 0.00 | 0.00 | 85 | 1013.7 |
| 20260504193003 | 13 | 24 | 3.2 | 14.5 | 0.00 | 0.00 | 0.00 | 84 | 1013.7 |
| 20260504192003 | 13 | 23 | 1.6 | 9.7 | 0.00 | 0.00 | 0.00 | 84 | 1013.6 |
| 20260504191005 | 13 | 11 | 3.2 | 6.4 | 0.00 | 0.00 | 0.00 | 84 | 1013.5 |
| 20260504190003 | 13 | 24 | 3.2 | 11.3 | 0.00 | 0.00 | 0.00 | 84 | 1013.5 |
| 20260504185003 | 13 | 29 | 1.6 | 9.7 | 0.00 | 0.00 | 0.00 | 83 | 1013.5 |
| 20260504184003 | 13 | 15 | 3.2 | 8.0 | 0.00 | 0.00 | 0.00 | 83 | 1013.5 |
| 20260504183003 | 13 | 23 | 1.6 | 6.4 | 0.00 | 0.00 | 0.00 | 83 | 1013.3 |
| 20260504182004 | 13 | 35 | 3.2 | 8.0 | 0.00 | 0.00 | 0.00 | 83 | 1013.2 |
| 20260504181004 | 13 | 63 | 3.2 | 9.7 | 0.00 | 0.00 | 0.00 | 83 | 1013.2 |
| 20260504180004 | 14 | 42 | 3.2 | 8.0 | 0.00 | 0.00 | 0.00 | 83 | 1013.2 |
| 20260504175003 | 14 | 38 | 4.8 | 12.9 | 0.00 | 0.00 | 0.00 | 83 | 1013.2 |
| 20260504173003 | 14 | 43 | 4.8 | 12.9 | 0.00 | 0.00 | 0.00 | 82 | 1013.2 |
| 20260504172005 | 14 | 58 | 6.4 | 14.5 | 0.00 | 0.00 | 0.00 | 81 | 1013.1 |
| 20260504171003 | 14 | 13 | 6.4 | 17.7 | 0.00 | 0.00 | 0.00 | 82 | 1013.2 |
| 20260504141003 | 14 | 4 | 6.4 | 16.1 | 0.00 | 0.00 | 0.00 | 83 | 1013.6 |
| 20260504082003 | 11 | 36 | 4.8 | 12.9 | 0.00 | 0.00 | 0.00 | 94 | 1013.4 |
| 20260504081004 | 11 | 21 | 6.4 | 11.3 | 0.00 | 0.00 | 0.00 | 94 | 1013.3 |
| 20260504050003 | 11 | 5 | 3.2 | 9.7 | 0.00 | 0.00 | 0.00 | 94 | 1011.4 |
| 20260504045003 | 11 | 12 | 4.8 | 12.9 | 0.00 | 0.00 | 0.00 | 93 | 1011.3 |
| 20260504044004 | 11 | 25 | 3.2 | 8.0 | 0.00 | 0.00 | 0.00 | 94 | 1011.4 |
| 20260504043003 | 12 | 37 | 3.2 | 9.7 | 0.00 | 0.00 | 0.00 | 93 | 1011.2 |
| 20260504042003 | 12 | 37 | 3.2 | 9.7 | 0.00 | 0.00 | 0.00 | 93 | 1011.2 |
| 20260504041004 | 12 | 24 | 3.2 | 9.7 | 0.00 | 0.00 | 0.00 | 93 | 1011.2 |
| 20260504040005 | 12 | 19 | 3.2 | 9.7 | 0.00 | 0.00 | 0.00 | 93 | 1011.1 |
| 20260504035005 | 12 | 32 | 1.6 | 9.7 | 0.00 | 0.00 | 0.00 | 93 | 1011.2 |
| 20260504033003 | 12 | 29 | 1.6 | 8.0 | 0.00 | 0.00 | 0.00 | 93 | 1011.1 |
| 20260504032003 | 12 | 53 | 3.2 | 8.0 | 0.00 | 0.00 | 0.00 | 94 | 1011.2 |
| 20260504031004 | 12 | 57 | 1.6 | 8.0 | 0.00 | 0.00 | 0.00 | 94 | 1011.2 |
| 20260504030003 | 12 | 38 | 3.2 | 9.7 | 0.00 | 0.00 | 0.00 | 94 | 1011.1 |
| 20260504024004 | 12 | 64 | 1.6 | 9.7 | 0.00 | 0.00 | 0.00 | 93 | 1011.0 |
| 20260504023003 | 12 | 13 | 3.2 | 9.7 | 0.00 | 0.00 | 0.00 | 93 | 1010.9 |
| 20260504022003 | 12 | 30 | 4.8 | 11.3 | 0.00 | 0.00 | 0.00 | 93 | 1010.7 |
| 20260504021004 | 12 | 26 | 4.8 | 11.3 | 0.00 | 0.00 | 0.00 | 93 | 1010.8 |
| 20260504020004 | 12 | 31 | 4.8 | 16.1 | 0.00 | 0.00 | 0.00 | 93 | 1010.7 |